Weather Roundup
Issued by NWS

Home | Current Version | Previous Version | Text Only | Print | Product List | Glossary On
Versions: 1 2 3 4 5 6 7 8 9 10 11 12 13 14 15 16 17 18 19 20 21 22 23 24 25 26 27 28 29 30 31 32 33 34 35 36 37 38 39 40 41 42 43 44 45 46 47 48 49 50
000
NZUS93 KARX 200259
HRRWXR

CURRENT HOURLY OBSERVATIONS ACROSS
MUCH OF THE UPPER MISSISSIPPI VALLEY
NATIONAL WEATHER SERVICE LA CROSSE WI
900 PM CST FRI DEC 19 2014


...SOUTHEAST MINNESOTA...


CITY           SKY/WX    TMP DP  RH WIND       PRES   REMARKS
ROCHESTER      CLOUDY    27  22  81 S12       30.18S WCI  17
ROCHESTER/MAYO CLOUDY    28  21  76 SE10      30.19R WCI  18
WINONA         CLOUDY    30  23  74 SE3       30.23S
AUSTIN         CLOUDY    28  25  86 S6        30.17S WCI  22
ALBERT LEA     CLOUDY    28  28 100 S10       30.16S FOG     WCI  19
DODGE CENTER   CLOUDY    28  27  93 S7        30.17R FOG     WCI  21
PRESTON        CLOUDY    26  22  82 S8        30.19S WCI  18
OWATONNA       CLOUDY    28  25  86 S8        30.17R WCI  20
FARIBAULT      CLOUDY    30  27  86 S6        30.18R WCI  24
$$

...ELSEWHERE IN MINNESOTA...


CITY           SKY/WX    TMP DP  RH WIND       PRES   REMARKS
MINNEAPOLIS    CLOUDY    29  24  82 SE7       30.18F HAZE    WCI  22
INTNL FALLS    CLOUDY    24  21  88 SE6       30.09F WCI  17
DULUTH         LGT SNOW  24  22  91 SE7       30.14F FOG     WCI  16
RED WING       CLOUDY    30  23  74 SE6       30.20S WCI  24
REDWOOD FALLS  CLOUDY    33  28  81 S10       30.11F WCI  25
MANKATO        CLOUDY    30  27  86 SE8       30.15S WCI  23
WORTHINGTON    CLOUDY    30  27  86 S8        30.10R WCI  23
FAIRMONT       CLOUDY    30  25  80 S10       30.13S WCI  21
$$

...SOUTHWEST WISCONSIN...


CITY           SKY/WX    TMP DP  RH WIND       PRES   REMARKS
LA CROSSE      CLOUDY    30  21  69 S7        30.23F WCI  23
PRAIRIE DU CHI CLOUDY    28  22  76 E3        30.24F
BOSCOBEL       CLOUDY    27  21  78 CALM      30.25S
LONE ROCK      NOT AVBL
PLATTEVILLE    CLOUDY    28  24  83 CALM      30.24S
FORT MC COY    CLOUDY    28  21  73 CALM      30.24F
VIROQUA        CLOUDY    27  22  83 S3        30.20F
WIS DELLS      NOT AVBL
$$

...ELSEWHERE IN WISCONSIN...


CITY           SKY/WX    TMP DP  RH WIND       PRES   REMARKS
MILWAUKEE      MOCLDY    28  18  66 CALM      30.27S
MADISON        CLOUDY    24  20  84 SE6       30.24F WCI  17
GREEN BAY      CLEAR     25  21  85 CALM      30.27F
EAU CLAIRE     NOT AVBL
BLACK RVR FLS  CLOUDY    28  21  75 CALM      30.22F
MEDFORD        CLOUDY    22  20  92 S5        30.20F WCI  16
WAUSAU         CLOUDY    23  19  85 CALM      30.21F
WIS RAPIDS     CLOUDY    23  18  81 CALM      30.25F
MARSHFIELD     CLOUDY    24  20  84 SE5       30.21F WCI  18
RICE LAKE      CLOUDY    27  22  83 SE7       30.21F WCI  19
$$

...NORTHEAST IOWA...


CITY           SKY/WX    TMP DP  RH WIND       PRES   REMARKS
DECORAH        CLOUDY    27  23  86 S6        30.20S WCI  20
MASON CITY     CLOUDY    28  25  88 S12       30.19R WCI  18
CHARLES CITY   CLOUDY    28  25  86 SE8       30.20R WCI  20
OELWEIN        CLOUDY    28  23  80 SE9       30.21S WCI  20
$$

...ELSEWHERE IN IOWA...


CITY           SKY/WX    TMP DP  RH WIND       PRES   REMARKS
DES MOINES     CLOUDY    32  29  88 SE9       30.20S FOG     WCI  24
IOWA CITY      CLOUDY    30  23  75 SE3       30.26S
FORT DODGE     CLOUDY    30  27  86 S7        30.17S WCI  23
$$

...NORTHERN ILLINOIS...


CITY           SKY/WX    TMP DP  RH WIND       PRES   REMARKS
CHICAGO-OHARE  CLOUDY    30  21  69 N5        30.26F WCI  25
CHICAGO-MIDWAY CLOUDY    33  25  72 S5        30.27F WCI  29
MOLINE         CLOUDY    28  23  81 E8        30.26F WCI  20
ROCKFORD       CLOUDY    28  22  78 SE5       30.29S WCI  23
PEORIA         MOCLDY    29  21  72 E6        30.26F WCI  23
$$

NOTE: "FAIR" INDICATES FEW OR NO CLOUDS BELOW 12,000 FEET WITH NO
SIGNIFICANT WEATHER AND/OR OBSTRUCTIONS TO VISIBILITY. WIND
SPEEDS ARE IN MILES-PER-HOUR.



USA.gov is the U.S. government's official web portal to all federal, state and local government web resources and services.